STARLINK-35408, 65859

Orbit data source: Space-Track

STARLINK-35408, 65859 is a payload satellite owned by SpaceX/Seattle (US) in LEO that was launched on Fri, 03 Oct 2025 UTC via an FALCON 9 launch vehicle from the Air Force Western Test Range (AFWTR). Payload-class satellites include a variety of spacecraft equipped with specific instruments for various scientific and technological missions. These include communications satellites like Starlink; space stations such as the ISS; scientific satellites like the Hubble; Earth observation satellites from companies like Planet Labs, Umbra, and HawkEye 360; GPS; miniature CubeSats for education and research; and military/defense satellites.

Loading next visibility...
Identifier
65859, 2025-223F
Orbit
LEO
Country
Flag of USUS
Related business
Manufacturer
SpaceX/Seattle
Mission
Operational spacecraft
Bus & Motor
STARLINK V2MO, Unknown motor
Mass
575 kg wet, ~530 kg dry
Launch date (UTC)
2025-10-03 (2 weeks ago)
Launch vehicle
FALCON 9
Launch site
Air Force Western Test Range (AFWTR)
Object type
Payload
Rocket body
Debris
Shape & HBR
Unknown shape, 17.7 m
Radar Cross Section
RCS unknown

Expand to show TLE details & history
Last TLE update: 8 hours ago

TLE from 8 hours ago
0 STARLINK-35408
1 65859U 25223F   25290.76560926 -.00830077  00000-0 -70959-2 0  9995
2 65859  53.1539 242.2852 0001113  99.8435 260.2709 15.71220030  2267
Epoch: 2025-10-17T18:22Z
TLE epoch observation values (Epoch: 2025-10-17T18:22:28.640Z)
Latitude
-0.00002°
Longitude
-59.84042°
Altitude
356.451 km
Speed
7.696 km/s
True Right ascension
16h 09m 08s
True Declination
0° 00' 00"
Sunlit
Object was in daylight at epoch
Visualization orbit readout
Latitude
Unknown
Longitude
Unknown
Altitude
Unknown
Speed
Unknown
Apparent Right ascension
Unknown
Apparent Declination
Unknown
Sunlit
N/A
Visualization observer readout
Local Sidereal Time
21:24:06
Azimuth
Unknown
Elevation
Unknown
Doppler factor
Unknown
Orbital elements
Apogee altitude
356.42 km
Perigee altitude
354.921 km
Semi-major axis
6,733.808 km
Eccentricity
0.00011
Inclination
53.1539°
RAAN
242.2852°
Arg. of periapsis
99.8435°
True anomaly
260.25833°
Mean anomaly
260.2709°
Eccentric anomaly
260.26461°
Mean motion
3.92782 °/min
Orbital period
91.65 mins
BSTAR
-0.0070959
Loading maneuver chart data...
Computing Atmospheric mass density...
Loading historical data...
Loading historical data...
Loading historical data...
Loading historical data...
Loading historical data...
Loading historical data...
Loading historical data...

Documentation

Showing up to 5 results
|